EXS84FN EGNX-LCLK

Flight info

Callsign EXS84FN
Flight time N/A
Altitude 37000
Route SAPCO Y53 DTY P166 BANTO P155 SIVDA P137 REDFA DCT TACHA DCT NOLRU DCT TIVUN DCT ESAMA DCT OSBIT DCT TENLO DCT LAMSI DCT SITNI DCT SASAL DCT SOGMO DCT BABIT DCT KOTUS DCT OBAGI DCT NISVA DCT USALI DCT RODIP UN131 KULAR UT39 TOMBI DCT VADUS M601 BONEK
Aircraft B738/M-SDE2E3FGHIRWXY/LB1

Departure

Time 2026-05-06 13:38
Airport East Midlands Airport (EGNX)

Arrival

Time N/A
Airport Larnaca International Airport (LCLK)
Time Latitude Longitude Altitude Speed Heading
2026-05-06 13:03 52.82729 -1.32934 300 ft 0 kts 178°
2026-05-06 13:17 52.82732 -1.32934 303 ft 3 kts 178°
2026-05-06 13:18 52.82758 -1.32936 302 ft 4 kts 181°
2026-05-06 13:18 52.82784 -1.32930 302 ft 4 kts 212°
2026-05-06 13:18 52.82794 -1.32907 301 ft 4 kts 251°
2026-05-06 13:18 52.82807 -1.32871 302 ft 4 kts 216°
2026-05-06 13:19 52.82830 -1.32856 300 ft 4 kts 179°
2026-05-06 13:19 52.82854 -1.32857 300 ft 3 kts 178°
2026-05-06 13:19 52.82857 -1.32857 300 ft 1 kts 178°
2026-05-06 13:23 52.82850 -1.32857 300 ft 3 kts 178°
2026-05-06 13:23 52.82817 -1.32865 300 ft 6 kts 202°
2026-05-06 13:23 52.82795 -1.32924 300 ft 7 kts 267°
2026-05-06 13:23 52.82793 -1.33009 300 ft 8 kts 267°
2026-05-06 13:24 52.82791 -1.33094 300 ft 7 kts 268°
2026-05-06 13:24 52.82815 -1.33158 301 ft 7 kts 342°
2026-05-06 13:24 52.82863 -1.33162 300 ft 7 kts 358°
2026-05-06 13:24 52.82909 -1.33173 301 ft 7 kts 334°
2026-05-06 13:25 52.82924 -1.33241 302 ft 7 kts 266°
2026-05-06 13:25 52.82921 -1.33328 306 ft 9 kts 266°
2026-05-06 13:25 52.82918 -1.33462 306 ft 13 kts 269°
2026-05-06 13:25 52.82915 -1.33618 304 ft 13 kts 269°
2026-05-06 13:26 52.82914 -1.33768 303 ft 13 kts 270°
2026-05-06 13:26 52.82910 -1.33913 303 ft 13 kts 267°
2026-05-06 13:26 52.82908 -1.34073 300 ft 16 kts 270°
2026-05-06 13:26 52.82908 -1.34264 303 ft 17 kts 270°
2026-05-06 13:27 52.82907 -1.34454 303 ft 16 kts 269°
2026-05-06 13:27 52.82904 -1.34635 305 ft 15 kts 268°
2026-05-06 13:27 52.82902 -1.34739 304 ft 6 kts 268°
2026-05-06 13:27 52.82901 -1.34754 304 ft 0 kts 268°
2026-05-06 13:35 52.82901 -1.34767 304 ft 4 kts 268°
2026-05-06 13:35 52.82900 -1.34839 305 ft 6 kts 268°
2026-05-06 13:35 52.82907 -1.34911 307 ft 6 kts 303°
2026-05-06 13:36 52.82946 -1.34932 305 ft 6 kts 358°
2026-05-06 13:36 52.82994 -1.34935 304 ft 8 kts 358°
2026-05-06 13:36 52.83049 -1.34925 304 ft 8 kts 30°
2026-05-06 13:36 52.83063 -1.34862 303 ft 2 kts 88°
2026-05-06 13:37 52.83063 -1.34851 302 ft 0 kts 89°
2026-05-06 13:37 52.83063 -1.34849 302 ft 0 kts 89°
2026-05-06 13:37 52.83063 -1.34840 302 ft 3 kts 89°
2026-05-06 13:37 52.83067 -1.34603 301 ft 51 kts 88°
2026-05-06 13:38 52.83085 -1.33655 307 ft 113 kts 88°
2026-05-06 13:38 52.83117 -1.32064 309 ft 164 kts 89°
2026-05-06 13:38 52.83136 -1.30204 805 ft 173 kts 86°
2026-05-06 13:38 52.83030 -1.28232 1698 ft 173 kts 96°
2026-05-06 13:39 52.82825 -1.26275 2386 ft 177 kts 95°
2026-05-06 13:39 52.82596 -1.24210 2926 ft 193 kts 101°
2026-05-06 13:39 52.81982 -1.22049 3162 ft 221 kts 124°
2026-05-06 13:39 52.80901 -1.20143 3639 ft 231 kts 131°
2026-05-06 13:40 52.79766 -1.18210 4230 ft 236 kts 131°
2026-05-06 13:40 52.78625 -1.16261 4773 ft 241 kts 133°
2026-05-06 13:40 52.77206 -1.14794 5105 ft 247 kts 167°
2026-05-06 13:40 52.75521 -1.15007 5521 ft 244 kts 207°
2026-05-06 13:41 52.74159 -1.16646 5947 ft 246 kts 227°
2026-05-06 13:41 52.72914 -1.18619 5942 ft 251 kts 225°
2026-05-06 13:41 52.71645 -1.20599 5976 ft 247 kts 225°
2026-05-06 13:41 52.70399 -1.22552 5972 ft 244 kts 225°
2026-05-06 13:42 52.69194 -1.24459 5954 ft 244 kts 225°
2026-05-06 13:42 52.67971 -1.26387 5969 ft 243 kts 225°
2026-05-06 13:42 52.66747 -1.28307 5977 ft 243 kts 226°
2026-05-06 13:42 52.65513 -1.30233 5981 ft 244 kts 225°
2026-05-06 13:43 52.64064 -1.31645 5961 ft 246 kts 191°
2026-05-06 13:43 52.62379 -1.31486 5984 ft 245 kts 157°
2026-05-06 13:43 52.60969 -1.29954 5979 ft 244 kts 132°
2026-05-06 13:43 52.59851 -1.27857 5985 ft 243 kts 127°
2026-05-06 13:44 52.58808 -1.25711 5979 ft 243 kts 126°
2026-05-06 13:44 52.57785 -1.23588 5973 ft 243 kts 127°
2026-05-06 13:44 52.56727 -1.21410 5972 ft 243 kts 126°
2026-05-06 13:44 52.55664 -1.19239 5978 ft 242 kts 127°
2026-05-06 13:45 52.54605 -1.17091 5966 ft 241 kts 126°
2026-05-06 13:45 52.52498 -1.12846 5983 ft 240 kts 128°
2026-05-06 13:45 52.51436 -1.10719 5976 ft 240 kts 127°
2026-05-06 13:46 52.50370 -1.08586 5970 ft 241 kts 127°
2026-05-06 13:46 52.49324 -1.06448 5974 ft 239 kts 121°
2026-05-06 13:46 52.48813 -1.03989 5989 ft 228 kts 87°
2026-05-06 13:46 52.48964 -1.01397 5980 ft 231 kts 75°
2026-05-06 13:47 52.49455 -0.98896 5955 ft 231 kts 57°
2026-05-06 13:47 52.50536 -0.97013 5989 ft 229 kts 33°
2026-05-06 13:47 52.52002 -0.96009 5988 ft 231 kts 10°
2026-05-06 13:47 52.53611 -0.95705 5986 ft 234 kts
2026-05-06 13:48 52.55247 -0.95454 5980 ft 236 kts
2026-05-06 13:48 52.56871 -0.95200 5972 ft 233 kts
2026-05-06 13:48 52.58457 -0.94996 5957 ft 229 kts 358°
2026-05-06 13:48 52.59956 -0.95790 5995 ft 230 kts 326°
2026-05-06 13:49 52.61035 -0.97766 5981 ft 237 kts 297°
2026-05-06 13:49 52.61421 -1.00365 5981 ft 241 kts 269°
2026-05-06 13:49 52.60961 -1.03021 5986 ft 247 kts 238°
2026-05-06 13:49 52.59699 -1.04925 5969 ft 251 kts 204°
2026-05-06 13:50 52.58023 -1.05603 5992 ft 250 kts 186°
2026-05-06 13:50 52.56300 -1.05873 5984 ft 248 kts 185°
2026-05-06 13:50 52.54570 -1.06107 5983 ft 250 kts 185°
2026-05-06 13:50 52.52839 -1.06358 5980 ft 250 kts 185°
2026-05-06 13:51 52.51106 -1.06625 5976 ft 247 kts 185°
2026-05-06 13:51 52.49398 -1.06887 5970 ft 245 kts 183°
2026-05-06 13:51 52.47779 -1.06423 5956 ft 238 kts 149°
2026-05-06 13:51 52.46595 -1.04606 5988 ft 235 kts 117°
2026-05-06 13:52 52.46109 -1.02065 5989 ft 235 kts 88°
2026-05-06 13:52 52.46421 -0.99482 5973 ft 230 kts 59°
2026-05-06 13:52 52.47445 -0.97534 5973 ft 227 kts 33°
2026-05-06 13:52 52.48892 -0.96533 5971 ft 228 kts 10°
2026-05-06 13:53 52.50471 -0.96239 5992 ft 229 kts
2026-05-06 13:53 52.52066 -0.95994 5991 ft 230 kts
2026-05-06 13:53 52.53670 -0.95745 5985 ft 233 kts
2026-05-06 13:53 52.55272 -0.95490 5972 ft 235 kts
2026-05-06 13:54 52.56898 -0.95226 5977 ft 235 kts
2026-05-06 13:54 52.58529 -0.95017 5962 ft 234 kts 358°
2026-05-06 13:54 52.60053 -0.95865 5989 ft 233 kts 324°
2026-05-06 13:54 52.61090 -0.97887 5973 ft 234 kts 294°
2026-05-06 13:55 52.61407 -1.00451 5988 ft 234 kts 266°
2026-05-06 13:55 52.60910 -1.03032 5984 ft 239 kts 238°
2026-05-06 13:55 52.59695 -1.04847 5982 ft 243 kts 206°
2026-05-06 13:55 52.58050 -1.05570 6003 ft 249 kts 186°
2026-05-06 13:56 52.56308 -1.05836 5989 ft 252 kts 185°
2026-05-06 13:56 52.54571 -1.06087 5988 ft 249 kts 185°
2026-05-06 13:56 52.52849 -1.06347 5973 ft 247 kts 186°
2026-05-06 13:56 52.51145 -1.06613 5967 ft 244 kts 186°
2026-05-06 13:57 52.49457 -1.06878 5959 ft 244 kts 184°
2026-05-06 13:57 52.47803 -1.06451 5961 ft 240 kts 150°
2026-05-06 13:57 52.46579 -1.04686 5981 ft 234 kts 120°
2026-05-06 13:57 52.46042 -1.02202 5993 ft 233 kts 91°
2026-05-06 13:58 52.46268 -0.99587 5974 ft 232 kts 63°
2026-05-06 13:58 52.47210 -0.97512 5970 ft 227 kts 37°
2026-05-06 13:58 52.48608 -0.96341 5975 ft 228 kts 14°
2026-05-06 13:58 52.50157 -0.95987 5988 ft 229 kts
2026-05-06 13:59 52.51749 -0.95744 5985 ft 231 kts
2026-05-06 13:59 52.53357 -0.95495 5979 ft 234 kts
2026-05-06 13:59 52.54977 -0.95237 5973 ft 235 kts
2026-05-06 13:59 52.56609 -0.94974 5977 ft 235 kts
2026-05-06 14:00 52.58239 -0.94726 5962 ft 235 kts
2026-05-06 14:00 52.59807 -0.95324 5978 ft 233 kts 330°
2026-05-06 14:00 52.60968 -0.97167 5973 ft 234 kts 301°
2026-05-06 14:00 52.61465 -0.99661 5978 ft 234 kts 273°
2026-05-06 14:01 52.61182 -1.02292 5991 ft 238 kts 246°
2026-05-06 14:01 52.60137 -1.04400 5977 ft 242 kts 214°
2026-05-06 14:01 52.58574 -1.05444 5988 ft 246 kts 189°
2026-05-06 14:01 52.56867 -1.05745 6004 ft 251 kts 185°
2026-05-06 14:02 52.55132 -1.05999 5974 ft 249 kts 185°
2026-05-06 14:02 52.53432 -1.06457 5959 ft 247 kts 204°
2026-05-06 14:02 52.52080 -1.08069 5984 ft 240 kts 235°
2026-05-06 14:02 52.51454 -1.10537 5969 ft 231 kts 269°
2026-05-06 14:03 52.51716 -1.13095 5997 ft 230 kts 296°
2026-05-06 14:03 52.52418 -1.15479 5985 ft 234 kts 300°
2026-05-06 14:03 52.53163 -1.17853 5972 ft 233 kts 300°
2026-05-06 14:03 52.53890 -1.20178 5961 ft 230 kts 300°
2026-05-06 14:04 52.54615 -1.22502 5967 ft 227 kts 300°
2026-05-06 14:04 52.55351 -1.24833 5820 ft 233 kts 300°
2026-05-06 14:04 52.56121 -1.27208 5643 ft 236 kts 300°
2026-05-06 14:04 52.56637 -1.28783 5525 ft 236 kts 301°
2026-05-06 14:05 52.57650 -1.31921 5268 ft 232 kts 301°
2026-05-06 14:05 52.58385 -1.34256 5088 ft 228 kts 301°
2026-05-06 14:05 52.58872 -1.35830 4949 ft 226 kts 300°
2026-05-06 14:05 52.59586 -1.38090 4755 ft 226 kts 300°
2026-05-06 14:06 52.60469 -1.40204 4590 ft 222 kts 316°
2026-05-06 14:06 52.61533 -1.42040 4441 ft 221 kts 315°
2026-05-06 14:06 52.62588 -1.43880 4284 ft 221 kts 316°
2026-05-06 14:06 52.63628 -1.45750 4126 ft 220 kts 316°
2026-05-06 14:07 52.64653 -1.47620 3968 ft 220 kts 315°
2026-05-06 14:07 52.65673 -1.49463 3831 ft 221 kts 315°
2026-05-06 14:07 52.66709 -1.51340 3661 ft 222 kts 315°
2026-05-06 14:07 52.67747 -1.53233 3528 ft 222 kts 315°
2026-05-06 14:08 52.68781 -1.55119 3429 ft 220 kts 315°
2026-05-06 14:08 52.69811 -1.56991 3310 ft 219 kts 315°
2026-05-06 14:08 52.70835 -1.58847 3183 ft 220 kts 315°
2026-05-06 14:08 52.71874 -1.60720 3035 ft 222 kts 315°
2026-05-06 14:09 52.72890 -1.62566 2976 ft 212 kts 315°
2026-05-06 14:09 52.73846 -1.64297 2995 ft 201 kts 315°
2026-05-06 14:09 52.74926 -1.65649 2997 ft 193 kts 345°
2026-05-06 14:09 52.76255 -1.65872 3042 ft 195 kts
2026-05-06 14:10 52.77637 -1.65936 3044 ft 200 kts
2026-05-06 14:10 52.79038 -1.66006 3017 ft 199 kts
2026-05-06 14:10 52.80300 -1.65491 3005 ft 184 kts 36°
2026-05-06 14:10 52.81071 -1.63890 3026 ft 178 kts 62°
2026-05-06 14:11 52.81658 -1.62078 3038 ft 178 kts 60°
2026-05-06 14:11 52.82250 -1.60287 3024 ft 176 kts 61°
2026-05-06 14:11 52.82589 -1.58386 3013 ft 175 kts 85°
2026-05-06 14:11 52.82663 -1.56362 2974 ft 176 kts 84°
2026-05-06 14:12 52.82724 -1.54353 2725 ft 172 kts 85°
2026-05-06 14:12 52.82760 -1.52451 2532 ft 158 kts 85°
2026-05-06 14:12 52.82789 -1.50702 2307 ft 148 kts 84°
2026-05-06 14:12 52.82818 -1.49020 2107 ft 147 kts 84°
2026-05-06 14:13 52.82847 -1.47313 1917 ft 150 kts 84°
2026-05-06 14:13 52.82875 -1.45616 1715 ft 148 kts 83°
2026-05-06 14:13 52.82903 -1.43908 1502 ft 148 kts 82°
2026-05-06 14:13 52.82934 -1.42213 1274 ft 147 kts 84°
2026-05-06 14:14 52.82963 -1.40542 1076 ft 147 kts 83°
2026-05-06 14:14 52.82994 -1.38837 871 ft 148 kts 85°
2026-05-06 14:14 52.83016 -1.37176 676 ft 140 kts 84°
2026-05-06 14:14 52.83051 -1.35558 437 ft 139 kts 84°
2026-05-06 14:15 52.83076 -1.34046 309 ft 137 kts 84°
2026-05-06 14:15 52.83103 -1.32710 300 ft 85 kts 88°
2026-05-06 14:15 52.83115 -1.32015 305 ft 45 kts 89°
2026-05-06 14:15 52.83123 -1.31541 308 ft 38 kts 88°
2026-05-06 14:16 52.83130 -1.31127 305 ft 33 kts 88°
2026-05-06 14:16 52.83138 -1.30790 299 ft 21 kts 88°
2026-05-06 14:16 52.83103 -1.30679 302 ft 9 kts 168°
2026-05-06 14:16 52.83048 -1.30682 300 ft 8 kts 190°
2026-05-06 14:17 52.83005 -1.30708 300 ft 3 kts 212°
2026-05-06 14:17 52.82988 -1.30733 303 ft 4 kts 226°
2026-05-06 14:17 52.82971 -1.30777 300 ft 6 kts 248°
2026-05-06 14:17 52.82968 -1.30822 300 ft 0 kts 269°
2026-05-06 14:19 52.82968 -1.30831 300 ft 4 kts 268°
2026-05-06 14:20 52.82966 -1.30921 300 ft 12 kts 267°
2026-05-06 14:20 52.82964 -1.31081 301 ft 14 kts 269°
2026-05-06 14:20 52.82959 -1.31238 302 ft 13 kts 267°
2026-05-06 14:20 52.83019 -1.31316 301 ft 13 kts 357°
2026-05-06 14:21 52.83104 -1.31339 304 ft 13 kts 323°
2026-05-06 14:21 52.83125 -1.31480 307 ft 16 kts 268°
2026-05-06 14:21 52.83121 -1.31699 308 ft 23 kts 268°
2026-05-06 14:21 52.83116 -1.32006 305 ft 28 kts 270°
2026-05-06 14:22 52.83111 -1.32315 300 ft 26 kts 269°
2026-05-06 14:22 52.83076 -1.32590 300 ft 24 kts 229°
2026-05-06 14:22 52.82960 -1.32770 303 ft 20 kts 225°
2026-05-06 14:22 52.82915 -1.32850 300 ft 1 kts 215°
2026-05-06 14:23 52.82899 -1.32856 300 ft 3 kts 180°
2026-05-06 14:23 52.82884 -1.32838 300 ft 3 kts 124°
2026-05-06 14:23 52.82866 -1.32783 300 ft 6 kts 118°
2026-05-06 14:23 52.82863 -1.32772 302 ft 0 kts 118°
2026-05-06 14:24 52.82862 -1.32770 302 ft 0 kts 118°